Flag for Austria Weather past 2 weeks in Schwechat, Lower Austria, Austria

Now
66 °F

Passing clouds.


Feels Like: 66 °F
Forecast: 54 / 63 °F
Wind: 12 mph from Northwest

Location: Vienna Schwechat-Flughafen Airport

Current Time: Sep 4, 2015 at 10:49:12 AM

Latest Report: Sep 4, 2015 at 10:20 AM


Visibility: N/A

Pressure: 30.01 "Hg

Humidity: 64%

Dew point: 54 °F

Location of SchwechatLocation

Historic Weather in Schwechat — Graph

°F

Schwechat temperature yesterday

Maximum temperature yesterday: 73 °F (at 5:20 PM)
Minimum temperature yesterday: 55 °F (at 4:20 AM)
Average temperature yesterday: 64 °F

Past Weeks' High & Low Weather Summary

 TemperatureHumidityPressure
High93 °F (Aug 30, 2:50 PM)100% (Aug 20, 10:20 AM)30.24 "Hg (Aug 20, 10:20 AM)
Low50 °F (Aug 26, 4:50 AM)19% (Aug 31, 4:20 PM)29.71 "Hg (Sep 1, 7:50 PM)
Average70 °F67%30.03 "Hg
* Reported Aug 20 9:20 AM — Sep 4 9:50 AM, Schwechat, Weather by CustomWeather, © 2015

Note: Actual official high and low records may vary slightly from our data, if they occured in-between our weather recording intervals... More about our weather records

Advertising

Schwechat weather history for previous 24 hours

 ConditionsComfort  
Time TempWeatherWind HumidityBarometerVisibility
9:50 AM
Fri, Sep 4
64 °FSunny.15 mph64%30.01 "Hg10 mi
9:20 AM64 °FSunny.14 mph68%29.98 "Hg10 mi
8:50 AM63 °FSunny.13 mph73%29.98 "Hg10 mi
8:20 AM61 °FSunny.15 mph77%29.98 "Hg10 mi
7:50 AM61 °FSunny.15 mph77%29.98 "Hg10 mi
7:20 AM61 °FSunny.15 mph77%29.98 "Hg10 mi
6:50 AM61 °FClear.15 mph77%29.95 "Hg10 mi
6:20 AM61 °FClear.13 mph83%29.95 "Hg10 mi
5:50 AM61 °FClear.10 mph83%29.95 "Hg10 mi
5:20 AM61 °FPassing clouds.14 mph83%29.95 "HgN/A
4:50 AM61 °FPassing clouds.13 mph83%29.95 "HgN/A
4:20 AM61 °FPassing clouds.10 mph88%29.95 "HgN/A
3:50 AM61 °FPassing clouds.15 mph88%29.92 "HgN/A
3:20 AM61 °FPartly cloudy.15 mph88%29.92 "HgN/A
2:50 AM61 °FPartly cloudy.12 mph94%29.92 "HgN/A
2:20 AM61 °FPartly cloudy.12 mph94%29.92 "HgN/A
1:50 AM61 °FSprinkles. Partly cloudy.12 mph94%29.92 "HgN/A
1:20 AM61 °FRain showers. Partly cloudy.18 mph94%29.92 "Hg5 mi
12:50 AM63 °FRain showers. Partly cloudy.16 mph88%29.92 "Hg4 mi
12:20 AM63 °FPassing clouds.9 mph88%29.89 "HgN/A
11:20 PM
Thu, Sep 3
64 °FPassing clouds.15 mph78%29.86 "HgN/A
10:50 PM68 °FPassing clouds.5 mph78%29.86 "HgN/A
10:20 PM66 °FPassing clouds.2 mph83%29.86 "HgN/A
9:50 PM68 °FPassing clouds.1 mph78%29.86 "HgN/A
9:20 PM68 °FPassing clouds.6 mph78%29.86 "HgN/A
8:50 PM68 °FPassing clouds.3 mph78%29.86 "HgN/A
8:20 PM68 °FPartly sunny.3 mph73%29.86 "HgN/A
7:50 PM68 °FBroken clouds.5 mph73%29.86 "HgN/A
7:20 PM68 °FBroken clouds.3 mph78%29.86 "HgN/A
6:50 PM70 °FBroken clouds.3 mph73%29.86 "HgN/A
6:20 PM72 °FBroken clouds.3 mph65%29.86 "HgN/A
5:50 PM73 °FPassing clouds.7 mph61%29.86 "HgN/A
5:20 PM73 °FBroken clouds.6 mph57%29.89 "HgN/A
4:50 PM72 °FBroken clouds.6 mph57%29.89 "HgN/A
4:20 PM72 °FBroken clouds.6 mph53%29.89 "HgN/A
3:50 PM72 °FBroken clouds.6 mph57%29.92 "HgN/A
3:20 PM72 °FBroken clouds.6 mph53%29.92 "HgN/A
2:50 PM70 °FPartly sunny.5 mph57%29.92 "HgN/A
2:20 PM70 °FBroken clouds.5 mph57%29.95 "HgN/A
1:50 PM70 °FBroken clouds.5 mph60%29.95 "HgN/A
1:20 PM68 °FPartly sunny.2 mph64%29.95 "HgN/A
12:50 PM68 °FPartly sunny.1 mph64%29.95 "HgN/A
12:20 PM68 °FPartly sunny.1 mph64%29.98 "HgN/A
11:50 AM66 °FBroken clouds.2 mph73%29.98 "HgN/A
11:20 AM63 °FPassing clouds.5 mph77%29.98 "HgN/A
10:50 AM63 °FBroken clouds.3 mph77%29.98 "HgN/A
10:20 AM63 °FBroken clouds.6 mph77%29.98 "HgN/A
Weather by CustomWeather, © 2015

See weather overviewHow to use our weather pages